SCP
0 0 0 0 0 0 0 0 0 0 0 0 0 0 0 0 0 0 0 0 0 0 0 0 0 0 0 0 0 0 0 1 1 1 1 1 1 1
0 0 0 0 0 0 0 0 0 0 0 0 0 0 0 0 0 0 0 0 0 0 0 0 0 0 0 0 0 0 0 1 1 1 1 1 1 1
0 0 0 0 0 0 0 0 0 0 0 0 0 0 0 0 0 0 0 0 0 0 0 0 0 0 0 0 0 0 0 0 1 1 1 1 1 1
0 0 0 0 0 0 0 0 0 0 0 0 0 0 0 0 0 0 0 0 0 0 0 0 0 0 0 0 0 0 0 0 0 0 0 1 1 1
0 0 0 0 0 0 0 0 0 0 0 0 0 0 0 0 0 0 0 0 0 0 0 0 0 0 0 0 0 0 0 0 0 0 0 0 0 1
0 0 0 0 0 0 0 0 0 0 0 0 0 0 0 0 0 0 0 0 0 0 0 0 0 0 0 0 0 0 0 0 0 0 0 0 0 0
0 0 0 0 0 0 0 0 0 0 -0 -0 0 0 0 0 0 0 0 0 0 0 0 0 0 0 0 0 0 0 0 0 0 0 0 0 0 0
0 0 0 0 0 0 0 0 0 0 0 0 0 0 0 0 0 0 0 0 0 0 0 0 0 0 0 0 0 0 0 0 0 0 0 0 0 0
0 0 0 0 0 0 0 0 0 0 0 0 0 0 0 0 0 0 0 0 0 0 0 0 0 0 0 0 0 0 0 0 0 0 0 0 0 0
0 0 0 0 0 0 0 0 0 0 0 0 0 0 0 0 0 0 0 0 0 0 0 0 0 0 0 0 0 0 0 0 0 0 0 0 0 0
0 0 0 0 0 0 0 0 0 0 0 0 0 0 0 0 0 0 0 0 0 0 0 0 0 0 0 0 0 0 0 0 0 0 0 0 0 0
0 0 0 0 0 0 0 0 0 0 0 0 0 0 0 0 0 0 0 0 0 0 0 0 0 0 0 0 0 0 0 0 0 0 0 0 0 0
0 0 0 0 0 0 0 0 0 0 0 0 0 0 0 0 0 0 0 0 0 0 0 0 0 0 0 0 0 0 0 0 0 0 0 0 0 0
0 0 0 0 0 0 0 0 0 0 0 0 0 0 0 0 0 0 0 0 0 0 0 0 0 0 0 0 0 0 0 0 0 0 0 0 0 0
0 0 0 0 0 0 0 0 0 0 0 0 0 0 0 0 0 0 0 0 0 0 0 0 0 0 0 0 0 0 0 0 0 0 0 0 0 0
0 0 0 0 0 0 0 0 0 0 0 0 0 0 0 0 0 0 0 0 0 0 0 0 0 0 0 0 0 0 0 0 0 0 0 0 0 0
0 0 0 0 0 0 0 0 0 0 0 0 0 0 0 0 0 0 0 0 0 0 0 0 0 0 0 0 0 0 0 0 0 0 0 0 0 0
0 0 0 0 0 0 0 0 0 0 0 0 0 0 0 0 0 0 0 0 0 0 0 0 0 0 0 0 0 0 0 0 0 0 0 0 0 0
0 0 0 0 0 0 0 0 0 0 0 0 0 0 0 0 0 0 0 0 0 0 0 0 0 0 0 0 0 0 0 0 0 0 0 0 0 0
0 0 0 0 0 0 0 0 0 0 0 0 0 0 0 0 0 0 0 0 0 0 0 0 0 0 0 0 0 0 0 0 0 0 0 0 0 0
0 0 0 0 0 0 0 0 0 0 0 0 0 0 0 0 0 0 0 0 0 0 0 0 0 0 0 0 0 0 0 0 0 0 0 0 0 0
0 0 0 0 0 0 0 0 0 0 0 0 0 0 0 0 0 0 0 0 0 0 0 0 0 0 0 0 0 0 0 0 0 0 0 0 0 0
0 0 0 0 0 0 0 0 0 0 0 0 0 0 0 0 0 0 0 0 0 0 0 0 0 0 0 0 0 0 0 0 0 0 0 0 0 0
Wind_Speed
3 3 2 2 2 2 1 1 2 1 2 3 3 4 5 4 6 4 4 8 8 8 8 9 9 8 8 7 6 5 5 6 5 5 5 5 5 5
2 3 3 2 2 2 2 2 1 2 0 2 2 3 4 5 8 5 5 9 9 9 8 9 9 9 8 7 6 6 6 5 6 6 6 5 6 6
4 4 3 3 2 2 2 2 2 1 1 2 2 2 3 5 6 5 5 4 5 9 9 8 9 10 10 9 8 7 7 6 7 7 7 6 6 6
3 3 3 3 3 2 2 2 1 1 1 1 2 3 3 4 4 5 5 5 4 8 9 9 9 9 9 9 9 8 8 8 8 7 7 7 7 7
2 2 2 3 3 2 2 2 1 1 1 0 2 2 2 3 4 4 5 4 5 7 8 8 9 9 9 9 9 8 9 9 9 8 7 6 6 7
3 2 2 2 1 2 2 2 1 2 1 1 1 2 2 3 2 3 4 4 5 5 6 7 8 9 10 10 9 9 8 8 9 8 7 6 6 7
3 3 3 4 5 3 2 1 1 1 1 1 1 2 3 3 3 3 3 4 4 3 4 4 5 4 6 8 9 10 10 9 9 9 7 6 6 7
3 3 3 5 6 7 7 6 4 2 1 0 1 2 3 3 3 3 3 3 4 3 3 4 3 4 4 4 8 9 10 10 10 10 9 8 8 7
2 2 3 4 5 3 5 7 6 6 3 1 1 3 3 3 3 3 3 2 4 4 3 4 3 4 4 5 9 9 9 10 11 11 10 9 9 9
1 1 1 2 3 3 3 3 3 4 4 2 2 3 4 3 3 3 3 3 4 3 1 3 4 4 6 5 8 9 10 11 10 11 10 10 9 9
1 1 1 1 4 5 3 3 4 4 5 6 6 6 7 7 5 2 2 2 4 3 1 2 4 4 4 4 5 9 10 10 11 11 11 10 10 9
1 2 3 4 4 4 2 1 3 4 4 5 6 7 6 6 7 2 1 2 3 4 2 2 3 3 5 3 3 4 5 8 10 11 11 10 9 6
1 2 2 5 5 5 3 1 3 4 2 3 3 4 4 4 4 3 2 2 3 5 3 2 3 3 4 5 4 4 4 5 5 6 8 9 9 6
1 1 2 5 5 5 4 5 6 5 2 2 3 3 4 4 4 4 4 4 5 6 5 3 3 4 4 6 6 5 4 5 5 5 5 8 8 9
1 2 3 4 5 4 5 6 5 2 2 2 3 4 4 4 4 4 4 4 5 5 5 4 4 4 4 6 6 6 6 5 4 4 5 6 6 6
1 2 4 4 3 3 5 4 3 2 2 3 4 4 4 4 4 3 4 4 4 5 5 5 5 5 5 7 7 7 6 5 5 6 6 6 6 6
0 1 2 2 2 3 3 3 3 3 3 3 3 4 4 4 4 3 3 3 4 6 6 5 5 5 7 7 7 8 7 7 6 6 6 7 7 7
1 0 1 2 2 3 3 4 3 3 3 3 4 4 5 5 6 5 4 4 5 6 6 6 5 5 5 6 9 8 7 7 7 6 6 7 9 7
1 1 2 3 3 3 3 3 4 4 4 4 4 5 5 5 5 6 5 5 6 6 6 5 5 5 8 10 6 7 7 7 7 7 6 7 9 9
1 2 3 3 3 4 4 4 4 4 4 4 5 5 5 5 6 6 6 7 7 7 7 5 5 6 7 9 9 8 9 9 7 8 8 7 8 9
2 3 3 3 4 4 4 4 4 5 5 5 5 5 5 5 6 6 7 10 9 8 8 8 7 10 7 6 8 8 7 9 11 9 8 8 8 8
3 3 3 4 4 4 4 4 4 5 5 5 5 5 5 5 7 8 7 8 7 8 9 8 7 6 5 8 10 11 10 8 9 14 15 13 9 8
3 3 3 4 4 4 4 5 5 5 5 5 5 5 5 6 6 7 7 8 8 9 9 9 7 6 7 8 10 10 12 11 8 7 8 12 17 19
Wind_Direction
53 56 54 29 36 43 69 108 121 64 341 330 336 343 349 354 359 2 357 358 3 2 1 360 357 353 350 346 338 328 326 327 327 324 320 314 306 291
47 54 45 25 31 36 46 53 89 139 212 300 305 318 338 357 1 360 356 2 4 360 358 359 356 355 355 352 349 340 329 326 326 324 319 315 307 301
40 49 37 31 37 29 37 44 48 89 136 301 306 321 346 350 347 346 347 352 351 357 357 0 359 358 359 359 359 352 343 335 328 322 315 310 305 298
37 42 27 35 37 26 32 32 25 49 123 316 322 332 333 335 337 342 347 352 346 353 355 359 357 356 358 360 0 358 356 353 342 328 316 308 303 300
41 43 21 41 31 18 24 19 1 21 71 110 316 319 316 329 339 340 342 338 343 351 353 354 353 351 350 350 351 354 357 354 346 337 327 318 312 307
36 38 29 44 35 19 23 8 11 26 26 26 330 321 315 316 337 335 337 336 333 342 345 345 348 349 347 345 345 348 348 348 345 341 331 324 318 311
31 28 29 42 39 34 36 18 38 37 20 11 341 338 329 332 328 316 319 318 318 338 332 334 338 339 339 339 344 345 343 341 342 344 340 332 326 320
36 17 24 33 29 28 30 31 33 41 9 356 322 316 301 296 301 308 312 331 319 323 329 314 326 320 321 323 333 339 342 340 341 340 339 338 333 326
55 29 24 20 21 19 20 22 15 14 9 256 260 276 281 281 291 300 291 281 274 294 317 301 312 308 309 320 330 338 342 340 337 334 331 329 329 326
54 43 28 353 356 18 24 14 355 344 338 338 263 271 275 273 252 257 266 283 284 288 305 289 300 298 307 308 323 335 338 334 332 331 328 323 322 322
13 16 17 349 351 15 31 7 347 334 336 344 339 337 336 337 335 344 338 333 306 293 292 282 290 298 294 293 308 321 325 327 328 327 325 322 321 321
352 347 354 353 354 6 21 1 333 315 326 337 341 341 339 336 341 333 277 289 292 292 286 290 290 312 306 289 297 310 312 312 314 314 315 315 319 319
329 322 324 344 350 351 351 306 304 317 322 325 325 327 329 329 325 315 273 243 261 270 280 279 282 286 279 293 295 291 295 301 306 303 304 308 311 310
236 275 301 334 346 349 346 334 336 345 342 336 331 323 317 311 306 302 293 273 252 259 275 263 265 269 279 288 291 294 294 292 292 294 299 304 304 303
245 290 322 338 345 345 340 342 347 348 335 323 309 297 286 286 295 301 299 294 286 279 279 260 255 261 258 270 282 287 295 292 282 287 294 294 292 293
337 335 341 347 343 328 333 336 332 305 298 284 286 287 292 295 293 294 297 306 302 294 281 269 260 255 263 266 271 280 280 282 288 286 288 287 283 276
341 11 1 346 339 329 324 319 313 314 309 295 293 298 300 299 294 290 284 291 287 292 297 291 272 262 258 265 273 274 277 278 277 280 284 286 281 274
73 2 304 299 294 297 302 306 302 296 290 289 291 291 293 295 296 295 286 282 285 288 290 293 301 304 291 266 241 265 273 274 277 276 272 280 284 278
94 270 276 280 281 284 284 284 285 286 283 282 284 286 288 291 293 295 293 290 286 285 285 287 290 291 297 298 278 237 262 278 279 278 270 268 277 281
254 260 269 273 276 277 278 279 283 288 284 282 282 284 285 289 293 293 292 290 291 292 291 284 274 274 276 287 292 286 261 266 273 277 278 276 272 275
260 264 267 271 274 276 277 278 280 283 284 284 283 282 285 287 289 290 291 292 291 291 291 289 279 280 278 281 283 283 274 260 261 270 279 282 286 285
258 261 269 271 274 278 281 282 284 284 285 281 282 283 284 284 287 290 291 291 289 287 287 289 291 290 280 278 281 286 290 287 274 272 269 266 270 274
258 263 271 277 277 280 283 284 284 286 285 284 285 285 287 289 288 287 288 287 288 289 291 293 294 288 283 279 281 284 286 290 291 288 277 270 267 269